Time,TemperatureF,DewpointF,PressureIn,WindDirection,WindDirectionDegrees,WindSpeedMPH,WindSpeedGustMPH,Humidity,HourlyPrecipIn,Conditions,Clouds,dailyrainin,SoftwareType,DateUTC
2013-10-26 00:00:00,46.6,34.7,29.92,SW,232,13.0,23.0,63,0.00,,,0.00,VWS V14.01,2013-10-26 05:00:00,
2013-10-26 07:55:00,38.6,31.0,30.00,NNW,333,3.0,3.0,74,0.00,,CLR,0.00,VWS V14.01,2013-10-26 12:55:00,
2013-10-26 08:00:00,38.4,30.9,30.00,NNE,29,7.0,7.0,74,0.00,,CLR,0.00,VWS V14.01,2013-10-26 13:00:00,
2013-10-26 08:05:00,38.2,30.7,30.00,NW,311,2.0,8.0,74,0.00,,CLR,0.00,VWS V14.01,2013-10-26 13:05:00,
2013-10-26 08:10:00,38.2,30.7,30.01,WNW,299,1.0,8.0,74,0.00,,CLR,0.00,VWS V14.01,2013-10-26 13:10:00,
2013-10-26 08:15:00,38.3,30.8,30.01,WNW,301,5.0,11.0,74,0.00,,CLR,0.00,VWS V14.01,2013-10-26 13:15:00,
2013-10-26 08:20:00,38.3,30.8,30.02,WSW,255,1.0,12.0,74,0.00,,CLR,0.00,VWS V14.01,2013-10-26 13:20:00,
2013-10-26 08:26:00,38.0,30.5,30.02,NNE,23,8.0,8.0,74,0.00,,CLR,0.00,VWS V14.01,2013-10-26 13:26:00,
2013-10-26 08:30:00,37.9,30.7,30.02,NNE,19,6.0,14.0,75,0.00,,,0.00,VWS V14.01,2013-10-26 13:30:00,
2013-10-26 08:31:00,37.9,30.7,30.02,NE,44,2.0,9.0,75,0.00,,CLR,0.00,VWS V14.01,2013-10-26 13:31:00,
2013-10-26 08:36:00,37.8,30.6,30.02,North,9,6.0,13.0,75,0.00,,CLR,0.00,VWS V14.01,2013-10-26 13:36:00,
2013-10-26 08:41:00,37.7,30.5,30.02,North,349,7.0,14.0,75,0.00,,CLR,0.00,VWS V14.01,2013-10-26 13:41:00,
2013-10-26 08:46:00,37.7,30.5,30.03,NNE,29,5.0,14.0,75,0.00,,CLR,0.00,VWS V14.01,2013-10-26 13:46:00,
2013-10-26 08:51:00,37.7,30.5,30.03,NNE,16,6.0,14.0,75,0.00,,CLR,0.00,VWS V14.01,2013-10-26 13:51:00,
2013-10-26 08:56:00,37.8,30.6,30.03,North,356,6.0,14.0,75,0.00,,CLR,0.00,VWS V14.01,2013-10-26 13:56:00,
2013-10-26 09:00:00,38.4,30.9,30.00,NNE,17,4.0,7.0,74,0.00,,,0.00,VWS V14.01,2013-10-26 14:00:00,
2013-10-26 09:01:00,37.9,30.7,30.03,NNW,346,3.0,4.0,75,0.00,,CLR,0.00,VWS V14.01,2013-10-26 14:01:00,
2013-10-26 09:06:00,38.0,30.8,30.04,North,9,4.0,17.0,75,0.00,,CLR,0.00,VWS V14.01,2013-10-26 14:06:00,
2013-10-26 09:11:00,38.0,30.5,30.04,North,11,4.0,17.0,74,0.00,,CLR,0.00,VWS V14.01,2013-10-26 14:11:00,
2013-10-26 09:16:00,38.0,30.5,30.04,North,360,3.0,17.0,74,0.00,,CLR,0.00,VWS V14.01,2013-10-26 14:16:00,
2013-10-26 09:21:00,38.1,30.6,30.04,East,81,2.0,17.0,74,0.00,,CLR,0.00,VWS V14.01,2013-10-26 14:21:00,
2013-10-26 09:26:00,38.1,30.6,30.04,NNE,16,9.0,17.0,74,0.00,,CLR,0.00,VWS V14.01,2013-10-26 14:26:00,
2013-10-26 09:30:00,37.9,30.7,30.02,NNE,19,6.0,14.0,75,0.00,,,0.00,VWS V14.01,2013-10-26 14:30:00,
2013-10-26 09:31:00,38.2,30.7,30.04,North,356,5.0,5.0,74,0.00,,CLR,0.00,VWS V14.01,2013-10-26 14:31:00,
2013-10-26 09:36:00,38.4,30.9,30.04,NNE,26,6.0,11.0,74,0.00,,CLR,0.00,VWS V14.01,2013-10-26 14:36:00,
2013-10-26 09:41:00,38.7,30.8,30.05,West,271,6.0,13.0,73,0.00,,CLR,0.00,VWS V14.01,2013-10-26 14:41:00,
2013-10-26 09:46:00,38.8,30.9,30.05,North,358,8.0,13.0,73,0.00,,CLR,0.00,VWS V14.01,2013-10-26 14:46:00,
2013-10-26 09:51:00,38.9,30.7,30.05,North,356,11.0,13.0,72,0.00,,CLR,0.00,VWS V14.01,2013-10-26 14:51:00,
2013-10-26 09:56:00,39.1,31.2,30.05,North,9,5.0,16.0,73,0.00,,CLR,0.00,VWS V14.01,2013-10-26 14:56:00,
2013-10-26 10:00:00,37.9,30.7,30.03,NNE,26,2.0,14.0,75,0.00,,,0.00,VWS V14.01,2013-10-26 15:00:00,
2013-10-26 10:01:00,39.5,31.2,30.05,North,11,7.0,8.0,72,0.00,,CLR,0.00,VWS V14.01,2013-10-26 15:01:00,
2013-10-26 10:06:00,39.9,30.9,30.05,NNW,340,6.0,15.0,70,0.00,,CLR,0.00,VWS V14.01,2013-10-26 15:06:00,
2013-10-26 10:11:00,40.5,31.5,30.05,North,7,5.0,15.0,70,0.00,,CLR,0.00,VWS V14.01,2013-10-26 15:11:00,
2013-10-26 10:16:00,40.7,31.3,30.05,NNW,328,4.0,15.0,69,0.00,,CLR,0.00,VWS V14.01,2013-10-26 15:16:00,
2013-10-26 10:21:00,40.6,31.2,30.06,NE,48,4.0,15.0,69,0.00,,CLR,0.00,VWS V14.01,2013-10-26 15:21:00,
2013-10-26 10:26:00,40.6,31.2,30.06,NE,40,2.0,15.0,69,0.00,,CLR,0.00,VWS V14.01,2013-10-26 15:26:00,
2013-10-26 10:30:00,38.2,30.7,30.05,NE,41,5.0,17.0,74,0.00,,,0.00,VWS V14.01,2013-10-26 15:30:00,
2013-10-26 10:31:00,40.9,31.5,30.05,North,359,5.0,5.0,69,0.00,,CLR,0.00,VWS V14.01,2013-10-26 15:31:00,
2013-10-26 10:36:00,41.1,31.4,30.05,North,7,9.0,14.0,68,0.00,,CLR,0.00,VWS V14.01,2013-10-26 15:36:00,
2013-10-26 10:41:00,41.4,31.3,30.06,North,354,4.0,14.0,67,0.00,,CLR,0.00,VWS V14.01,2013-10-26 15:41:00,
2013-10-26 10:46:00,41.5,31.4,30.06,NE,36,4.0,15.0,67,0.00,,CLR,0.00,VWS V14.01,2013-10-26 15:46:00,
2013-10-26 10:51:00,41.6,30.7,30.06,NNE,25,6.0,15.0,65,0.00,,CLR,0.00,VWS V14.01,2013-10-26 15:51:00,
2013-10-26 10:56:00,41.8,30.9,30.07,North,11,5.0,15.0,65,0.00,,CLR,0.00,VWS V14.01,2013-10-26 15:56:00,
2013-10-26 11:00:00,39.5,31.2,30.05,NE,36,7.0,16.0,72,0.00,,,0.00,VWS V14.01,2013-10-26 16:00:00,
2013-10-26 11:01:00,42.2,31.7,30.07,North,6,10.0,10.0,66,0.00,,CLR,0.00,VWS V14.01,2013-10-26 16:01:00,
2013-10-26 11:06:00,42.6,31.7,30.07,NNE,26,3.0,12.0,65,0.00,,CLR,0.00,VWS V14.01,2013-10-26 16:06:00,
2013-10-26 11:11:00,42.8,31.1,30.07,NNE,23,6.0,15.0,63,0.00,,CLR,0.00,VWS V14.01,2013-10-26 16:11:00,
2013-10-26 11:16:00,42.7,30.6,30.07,North,4,8.0,15.0,62,0.00,,CLR,0.00,VWS V14.01,2013-10-26 16:16:00,
2013-10-26 11:21:00,42.7,31.4,30.07,NNE,20,2.0,15.0,64,0.00,,CLR,0.00,VWS V14.01,2013-10-26 16:21:00,
2013-10-26 11:26:00,43.1,31.0,30.08,NNE,23,4.0,15.0,62,0.00,,CLR,0.00,VWS V14.01,2013-10-26 16:26:00,
2013-10-26 11:30:00,40.9,31.2,30.05,NW,321,4.0,15.0,68,0.00,,,0.00,VWS V14.01,2013-10-26 16:30:00,
2013-10-26 11:31:00,43.3,31.6,30.07,North,11,5.0,9.0,63,0.00,,CLR,0.00,VWS V14.01,2013-10-26 16:31:00,
2013-10-26 11:36:00,43.7,31.5,30.08,North,1,6.0,10.0,62,0.00,,CLR,0.00,VWS V14.01,2013-10-26 16:36:00,
2013-10-26 11:41:00,43.7,30.7,30.08,NE,52,6.0,15.0,60,0.00,,CLR,0.00,VWS V14.01,2013-10-26 16:41:00,
2013-10-26 11:46:00,43.8,30.8,30.08,NNE,18,5.0,16.0,60,0.00,,CLR,0.00,VWS V14.01,2013-10-26 16:46:00,
2013-10-26 11:51:00,44.0,31.4,30.08,NW,321,3.0,16.0,61,0.00,,CLR,0.00,VWS V14.01,2013-10-26 16:51:00,
2013-10-26 11:56:00,44.1,31.1,30.09,NNE,26,5.0,16.0,60,0.00,,CLR,0.00,VWS V14.01,2013-10-26 16:56:00,
2013-10-26 12:00:00,42.2,31.7,30.07,NNE,21,4.0,15.0,66,0.00,,,0.00,VWS V14.01,2013-10-26 17:00:00,
2013-10-26 12:01:00,44.1,30.7,30.09,NNE,20,8.0,12.0,59,0.00,,CLR,0.00,VWS V14.01,2013-10-26 17:01:00,
2013-10-26 12:06:00,44.4,31.8,30.09,NNE,13,5.0,12.0,61,0.00,,CLR,0.00,VWS V14.01,2013-10-26 17:06:00,
2013-10-26 12:11:00,44.5,31.5,30.09,NNW,347,6.0,12.0,60,0.00,,CLR,0.00,VWS V14.01,2013-10-26 17:11:00,
2013-10-26 12:16:00,44.6,31.2,30.09,North,6,7.0,12.0,59,0.00,,CLR,0.00,VWS V14.01,2013-10-26 17:16:00,
2013-10-26 12:21:00,44.7,31.7,30.09,NNE,18,8.0,13.0,60,0.00,,CLR,0.00,VWS V14.01,2013-10-26 17:21:00,
2013-10-26 12:26:00,44.7,30.4,30.09,North,351,9.0,16.0,57,0.00,,CLR,0.00,VWS V14.01,2013-10-26 17:26:00,
2013-10-26 12:30:00,43.3,31.6,30.08,NNE,21,5.0,15.0,63,0.00,,,0.00,VWS V14.01,2013-10-26 17:30:00,
2013-10-26 12:31:00,44.8,30.5,30.09,NE,43,6.0,11.0,57,0.00,,CLR,0.00,VWS V14.01,2013-10-26 17:31:00,
2013-10-26 12:36:00,45.1,31.6,30.09,NNE,24,11.0,12.0,59,0.00,,CLR,0.00,VWS V14.01,2013-10-26 17:36:00,
2013-10-26 12:41:00,45.2,30.5,30.09,NNW,340,7.0,14.0,56,0.00,,CLR,0.00,VWS V14.01,2013-10-26 17:41:00,
2013-10-26 12:46:00,45.5,30.7,30.09,NE,36,5.0,14.0,56,0.00,,CLR,0.00,VWS V14.01,2013-10-26 17:46:00,
2013-10-26 12:51:00,45.8,31.5,30.09,NNW,327,5.0,14.0,57,0.00,,CLR,0.00,VWS V14.01,2013-10-26 17:51:00,
2013-10-26 12:56:00,46.0,30.8,30.09,NNE,19,4.0,14.0,55,0.00,,CLR,0.00,VWS V14.01,2013-10-26 17:56:00,
2013-10-26 13:00:00,44.1,30.7,30.09,North,356,7.0,16.0,59,0.00,,,0.00,VWS V14.01,2013-10-26 18:00:00,
2013-10-26 13:01:00,45.9,31.5,30.09,NW,308,3.0,7.0,57,0.00,,CLR,0.00,VWS V14.01,2013-10-26 18:01:00,
2013-10-26 13:06:00,46.2,30.9,30.09,NE,56,3.0,8.0,55,0.00,,CLR,0.00,VWS V14.01,2013-10-26 18:06:00,
2013-10-26 13:11:00,46.2,30.5,30.09,NNW,337,3.0,10.0,54,0.00,,CLR,0.00,VWS V14.01,2013-10-26 18:11:00,
2013-10-26 13:16:00,46.3,30.6,30.09,NE,51,3.0,10.0,54,0.00,,CLR,0.00,VWS V14.01,2013-10-26 18:16:00,
2013-10-26 13:21:00,46.6,30.9,30.09,North,11,4.0,10.0,54,0.00,,CLR,0.00,VWS V14.01,2013-10-26 18:21:00,
2013-10-26 13:26:00,46.9,31.6,30.09,NW,308,3.0,10.0,55,0.00,,CLR,0.00,VWS V14.01,2013-10-26 18:26:00,
2013-10-26 13:30:00,44.7,30.0,30.10,North,9,5.0,16.0,56,0.00,,,0.00,VWS V14.01,2013-10-26 18:30:00,
2013-10-26 13:31:00,47.1,30.4,30.09,North,11,3.0,6.0,52,0.00,,CLR,0.00,VWS V14.01,2013-10-26 18:31:00,
2013-10-26 13:36:00,47.0,30.8,30.09,WNW,288,3.0,11.0,53,0.00,,CLR,0.00,VWS V14.01,2013-10-26 18:36:00,
2013-10-26 13:41:00,47.3,31.0,30.09,NW,316,3.0,11.0,53,0.00,,CLR,0.00,VWS V14.01,2013-10-26 18:41:00,
2013-10-26 13:46:00,47.2,31.9,30.08,NNE,15,3.0,11.0,55,0.00,,CLR,0.00,VWS V14.01,2013-10-26 18:46:00,
2013-10-26 13:51:00,47.3,30.1,30.09,NW,316,3.0,12.0,51,0.00,,CLR,0.00,VWS V14.01,2013-10-26 18:51:00,
2013-10-26 13:56:00,47.4,30.7,30.08,NNW,347,7.0,12.0,52,0.00,,CLR,0.00,VWS V14.01,2013-10-26 18:56:00,
2013-10-26 14:00:00,45.8,31.5,30.09,NNE,28,3.0,14.0,57,0.00,,,0.00,VWS V14.01,2013-10-26 19:00:00,
2013-10-26 14:01:00,47.5,30.8,30.09,WSW,246,3.0,4.0,52,0.00,,CLR,0.00,VWS V14.01,2013-10-26 19:01:00,
2013-10-26 14:06:00,47.7,30.5,30.09,NW,316,3.0,9.0,51,0.00,,CLR,0.00,VWS V14.01,2013-10-26 19:06:00,
2013-10-26 14:11:00,47.8,30.6,30.09,North,11,6.0,10.0,51,0.00,,CLR,0.00,VWS V14.01,2013-10-26 19:11:00,
2013-10-26 14:16:00,47.9,31.1,30.09,NNE,32,2.0,10.0,52,0.00,,CLR,0.00,VWS V14.01,2013-10-26 19:16:00,
2013-10-26 14:21:00,48.1,31.3,30.09,West,267,2.0,10.0,52,0.00,,CLR,0.00,VWS V14.01,2013-10-26 19:21:00,
2013-10-26 14:26:00,48.2,31.4,30.08,NW,316,4.0,10.0,52,0.00,,CLR,0.00,VWS V14.01,2013-10-26 19:26:00,
2013-10-26 14:30:00,47.1,30.4,30.09,NNW,340,5.0,14.0,52,0.00,,,0.00,VWS V14.01,2013-10-26 19:30:00,
2013-10-26 14:31:00,48.4,30.6,30.08,NNW,340,2.0,3.0,50,0.00,,CLR,0.00,VWS V14.01,2013-10-26 19:31:00,
2013-10-26 14:36:00,48.3,30.5,30.08,NNE,18,3.0,10.0,50,0.00,,CLR,0.00,VWS V14.01,2013-10-26 19:36:00,
2013-10-26 14:41:00,48.4,31.1,30.09,North,360,2.0,10.0,51,0.00,,CLR,0.00,VWS V14.01,2013-10-26 19:41:00,
2013-10-26 14:46:00,48.3,30.0,30.09,North,8,7.0,10.0,49,0.00,,CLR,0.00,VWS V14.01,2013-10-26 19:46:00,
2013-10-26 14:51:00,48.2,30.5,30.09,NNE,20,7.0,10.0,50,0.00,,CLR,0.00,VWS V14.01,2013-10-26 19:51:00,
2013-10-26 14:56:00,48.3,30.5,30.09,NNE,17,5.0,10.0,50,0.00,,CLR,0.00,VWS V14.01,2013-10-26 19:56:00,
2013-10-26 15:00:00,47.5,30.8,30.09,NW,304,3.0,12.0,52,0.00,,,0.00,VWS V14.01,2013-10-26 20:00:00,
2013-10-26 15:01:00,48.4,30.6,30.09,NE,40,2.0,4.0,50,0.00,,CLR,0.00,VWS V14.01,2013-10-26 20:01:00,
2013-10-26 15:06:00,48.5,32.2,30.09,NW,311,2.0,7.0,53,0.00,,CLR,0.00,VWS V14.01,2013-10-26 20:06:00,
2013-10-26 15:11:00,48.7,31.9,30.09,NW,305,2.0,7.0,52,0.00,,CLR,0.00,VWS V14.01,2013-10-26 20:11:00,
2013-10-26 15:16:00,48.6,30.8,30.08,NNE,15,6.0,8.0,50,0.00,,CLR,0.00,VWS V14.01,2013-10-26 20:16:00,
2013-10-26 15:21:00,48.4,29.1,30.08,NNW,340,2.0,10.0,47,0.00,,CLR,0.00,VWS V14.01,2013-10-26 20:21:00,
2013-10-26 15:26:00,48.3,30.5,30.08,North,349,2.0,10.0,50,0.00,,CLR,0.00,VWS V14.01,2013-10-26 20:26:00,
2013-10-26 15:30:00,48.4,30.6,30.08,North,11,2.0,10.0,50,0.00,,,0.00,VWS V14.01,2013-10-26 20:30:00,
2013-10-26 15:31:00,48.5,30.7,30.08,NNE,32,4.0,5.0,50,0.00,,CLR,0.00,VWS V14.01,2013-10-26 20:31:00,
2013-10-26 15:36:00,48.8,31.5,30.08,NE,46,3.0,14.0,51,0.00,,CLR,0.00,VWS V14.01,2013-10-26 20:36:00,
2013-10-26 15:41:00,48.4,30.1,30.08,NNE,26,2.0,14.0,49,0.00,,CLR,0.00,VWS V14.01,2013-10-26 20:41:00,
2013-10-26 15:46:00,48.4,30.1,30.08,NE,56,3.0,14.0,49,0.00,,CLR,0.00,VWS V14.01,2013-10-26 20:46:00,
2013-10-26 15:51:00,48.7,31.4,30.08,NNW,337,1.0,14.0,51,0.00,,CLR,0.00,VWS V14.01,2013-10-26 20:51:00,
2013-10-26 15:56:00,48.8,31.5,30.08,NW,319,2.0,14.0,51,0.00,,CLR,0.00,VWS V14.01,2013-10-26 20:56:00,
2013-10-26 16:00:00,48.3,30.5,30.09,North,358,4.0,10.0,50,0.00,,,0.00,VWS V14.01,2013-10-26 21:00:00,
2013-10-26 16:01:00,49.1,31.3,30.08,WNW,296,2.0,3.0,50,0.00,,CLR,0.00,VWS V14.01,2013-10-26 21:01:00,
2013-10-26 16:06:00,49.0,31.7,30.09,NNE,30,2.0,5.0,51,0.00,,CLR,0.00,VWS V14.01,2013-10-26 21:06:00,
2013-10-26 16:11:00,48.9,31.6,30.09,NW,315,2.0,5.0,51,0.00,,CLR,0.00,VWS V14.01,2013-10-26 21:11:00,
2013-10-26 16:16:00,49.0,31.2,30.09,NNE,21,3.0,5.0,50,0.00,,CLR,0.00,VWS V14.01,2013-10-26 21:16:00,
2013-10-26 16:21:00,48.6,30.3,30.09,ENE,62,0.0,9.0,49,0.00,,CLR,0.00,VWS V14.01,2013-10-26 21:21:00,
2013-10-26 16:26:00,48.6,30.8,30.09,WNW,300,2.0,9.0,50,0.00,,CLR,0.00,VWS V14.01,2013-10-26 21:26:00,
2013-10-26 16:30:00,48.5,30.2,30.08,North,6,4.0,10.0,49,0.00,,,0.00,VWS V14.01,2013-10-26 21:30:00,
2013-10-26 16:31:00,48.3,30.5,30.09,North,11,3.0,3.0,50,0.00,,CLR,0.00,VWS V14.01,2013-10-26 21:31:00,
2013-10-26 16:36:00,48.2,30.0,30.09,NNE,32,3.0,6.0,49,0.00,,CLR,0.00,VWS V14.01,2013-10-26 21:36:00,
2013-10-26 16:41:00,48.3,30.5,30.09,North,356,2.0,6.0,50,0.00,,CLR,0.00,VWS V14.01,2013-10-26 21:41:00,
2013-10-26 16:46:00,48.2,30.5,30.09,WNW,285,1.0,6.0,50,0.00,,CLR,0.00,VWS V14.01,2013-10-26 21:46:00,
2013-10-26 16:51:00,48.2,30.5,30.09,NNE,23,3.0,7.0,50,0.00,,CLR,0.00,VWS V14.01,2013-10-26 21:51:00,
2013-10-26 16:56:00,48.0,29.8,30.09,NNW,338,1.0,7.0,49,0.00,,CLR,0.00,VWS V14.01,2013-10-26 21:56:00,
2013-10-26 17:00:00,49.1,31.3,30.08,WNW,285,2.0,14.0,50,0.00,,,0.00,VWS V14.01,2013-10-26 22:00:00,
2013-10-26 17:01:00,47.9,30.7,30.09,North,353,3.0,5.0,51,0.00,,CLR,0.00,VWS V14.01,2013-10-26 22:01:00,
2013-10-26 17:06:00,47.8,31.0,30.09,North,354,1.0,6.0,52,0.00,,CLR,0.00,VWS V14.01,2013-10-26 22:06:00,
2013-10-26 17:11:00,47.7,31.0,30.09,NNE,17,3.0,6.0,52,0.00,,CLR,0.00,VWS V14.01,2013-10-26 22:11:00,
2013-10-26 17:16:00,47.6,30.9,30.09,NE,41,2.0,6.0,52,0.00,,CLR,0.00,VWS V14.01,2013-10-26 22:16:00,
2013-10-26 17:21:00,47.5,31.2,30.09,NNE,20,1.0,6.0,53,0.00,,CLR,0.00,VWS V14.01,2013-10-26 22:21:00,
2013-10-26 17:26:00,47.2,31.0,30.09,NE,41,3.0,6.0,53,0.00,,CLR,0.00,VWS V14.01,2013-10-26 22:26:00,
2013-10-26 17:30:00,48.3,29.5,30.09,NE,41,2.0,9.0,48,0.00,,,0.00,VWS V14.01,2013-10-26 22:30:00,
2013-10-26 17:31:00,47.1,30.9,30.09,NNW,333,2.0,2.0,53,0.00,,CLR,0.00,VWS V14.01,2013-10-26 22:31:00,
2013-10-26 17:36:00,46.9,30.7,30.09,NW,321,3.0,6.0,53,0.00,,CLR,0.00,VWS V14.01,2013-10-26 22:36:00,
2013-10-26 17:41:00,46.6,30.4,30.08,NNE,25,1.0,6.0,53,0.00,,CLR,0.00,VWS V14.01,2013-10-26 22:41:00,
2013-10-26 17:46:00,46.1,30.4,30.09,NNE,31,1.0,6.0,54,0.00,,CLR,0.00,VWS V14.01,2013-10-26 22:46:00,
2013-10-26 17:51:00,45.6,30.4,30.09,North,4,1.0,6.0,55,0.00,,CLR,0.00,VWS V14.01,2013-10-26 22:51:00,
2013-10-26 17:56:00,45.2,30.5,30.09,NNE,12,2.0,6.0,56,0.00,,CLR,0.00,VWS V14.01,2013-10-26 22:56:00,
2013-10-26 18:00:00,48.0,30.8,30.09,North,352,2.0,7.0,51,0.00,,,0.00,VWS V14.01,2013-10-26 23:00:00,
2013-10-26 18:01:00,44.8,30.5,30.09,North,356,1.0,1.0,57,0.00,,CLR,0.00,VWS V14.01,2013-10-26 23:01:00,
2013-10-26 18:06:00,44.4,30.6,30.09,NW,308,1.0,3.0,58,0.00,,CLR,0.00,VWS V14.01,2013-10-26 23:06:00,
2013-10-26 18:11:00,44.1,30.3,30.09,North,1,0.0,3.0,58,0.00,,CLR,0.00,VWS V14.01,2013-10-26 23:11:00,
2013-10-26 18:16:00,43.8,30.4,30.09,North,349,1.0,3.0,59,0.00,,CLR,0.00,VWS V14.01,2013-10-26 23:16:00,
2013-10-26 18:21:00,43.5,30.5,30.09,North,4,1.0,3.0,60,0.00,,CLR,0.00,VWS V14.01,2013-10-26 23:21:00,
2013-10-26 18:26:00,43.2,30.3,30.09,SE,126,1.0,3.0,60,0.00,,CLR,0.00,VWS V14.01,2013-10-26 23:26:00,
2013-10-26 18:30:00,47.1,30.9,30.09,North,5,2.0,6.0,53,0.00,,,0.00,VWS V14.01,2013-10-26 23:30:00,
2013-10-26 18:31:00,43.0,30.1,30.09,North,9,0.0,1.0,60,0.00,,CLR,0.00,VWS V14.01,2013-10-26 23:31:00,
2013-10-26 18:36:00,42.8,30.3,30.09,NNW,331,0.0,2.0,61,0.00,,CLR,0.00,VWS V14.01,2013-10-26 23:36:00,
2013-10-26 18:41:00,42.4,30.3,30.10,NNE,19,0.0,2.0,62,0.00,,CLR,0.00,VWS V14.01,2013-10-26 23:41:00,
2013-10-26 18:46:00,42.2,30.5,30.10,NW,321,0.0,2.0,63,0.00,,CLR,0.00,VWS V14.01,2013-10-26 23:46:00,
2013-10-26 18:51:00,41.8,30.1,30.10,NW,321,0.0,2.0,63,0.00,,CLR,0.00,VWS V14.01,2013-10-26 23:51:00,
2013-10-26 18:56:00,41.8,30.9,30.10,WNW,299,1.0,2.0,65,0.00,,CLR,0.00,VWS V14.01,2013-10-26 23:56:00,
2013-10-26 19:00:00,44.8,30.5,30.09,North,5,0.0,6.0,57,0.00,,,0.00,VWS V14.01,2013-10-27 00:00:00,
2013-10-26 19:01:00,41.8,30.9,30.10,NW,305,0.0,0.0,65,0.00,,CLR,0.00,VWS V14.01,2013-10-27 00:01:00,
2013-10-26 19:06:00,41.6,30.7,30.10,West,278,1.0,3.0,65,0.00,,CLR,0.00,VWS V14.01,2013-10-27 00:06:00,
2013-10-26 19:11:00,41.6,30.7,30.10,NW,307,0.0,3.0,65,0.00,,CLR,0.00,VWS V14.01,2013-10-27 00:11:00,
2013-10-26 19:16:00,41.3,30.4,30.11,WNW,301,1.0,3.0,65,0.00,,CLR,0.00,VWS V14.01,2013-10-27 00:16:00,
2013-10-26 19:21:00,41.2,30.3,30.11,NNE,25,0.0,3.0,65,0.00,,CLR,0.00,VWS V14.01,2013-10-27 00:21:00,
2013-10-26 19:26:00,40.8,30.3,30.11,NNE,23,0.0,3.0,66,0.00,,CLR,0.00,VWS V14.01,2013-10-27 00:26:00,
2013-10-26 19:30:00,43.0,30.1,30.09,North,6,0.0,3.0,60,0.00,,,0.00,VWS V14.01,2013-10-27 00:30:00,
2013-10-26 19:31:00,40.4,30.0,30.11,NW,307,0.0,0.0,66,0.00,,CLR,0.00,VWS V14.01,2013-10-27 00:31:00,
2013-10-26 19:36:00,40.0,29.9,30.11,WNW,293,0.0,0.0,67,0.00,,CLR,0.00,VWS V14.01,2013-10-27 00:36:00,
2013-10-26 19:41:00,40.2,30.5,30.11,WNW,287,0.0,2.0,68,0.00,,CLR,0.00,VWS V14.01,2013-10-27 00:41:00,
2013-10-26 19:46:00,40.3,30.6,30.11,WNW,290,0.0,2.0,68,0.00,,CLR,0.00,VWS V14.01,2013-10-27 00:46:00,
2013-10-26 19:51:00,40.2,30.5,30.11,WNW,285,0.0,2.0,68,0.00,,CLR,0.00,VWS V14.01,2013-10-27 00:51:00,
2013-10-26 19:56:00,40.1,30.0,30.10,WNW,295,0.0,3.0,67,0.00,,CLR,0.00,VWS V14.01,2013-10-27 00:56:00,
2013-10-26 20:00:00,41.8,30.9,30.10,NW,305,0.0,2.0,65,0.00,,,0.00,VWS V14.01,2013-10-27 01:00:00,
2013-10-26 20:01:00,39.9,30.2,30.10,NW,305,1.0,1.0,68,0.00,,CLR,0.00,VWS V14.01,2013-10-27 01:01:00,
2013-10-26 20:06:00,40.0,30.3,30.10,WNW,302,0.0,2.0,68,0.00,,CLR,0.00,VWS V14.01,2013-10-27 01:06:00,
2013-10-26 20:11:00,40.0,30.3,30.10,WNW,287,1.0,2.0,68,0.00,,CLR,0.00,VWS V14.01,2013-10-27 01:11:00,
2013-10-26 20:16:00,40.0,30.3,30.10,NW,305,0.0,3.0,68,0.00,,CLR,0.00,VWS V14.01,2013-10-27 01:16:00,
2013-10-26 20:21:00,40.1,30.4,30.10,WNW,301,0.0,3.0,68,0.00,,CLR,0.00,VWS V14.01,2013-10-27 01:21:00,
2013-10-26 20:26:00,39.9,30.2,30.10,NW,304,1.0,3.0,68,0.00,,CLR,0.00,VWS V14.01,2013-10-27 01:26:00,
2013-10-26 20:30:00,40.4,30.0,30.11,NW,307,0.0,3.0,66,0.00,,,0.00,VWS V14.01,2013-10-27 01:30:00,
2013-10-26 20:31:00,40.0,29.9,30.10,NW,311,1.0,2.0,67,0.00,,CLR,0.00,VWS V14.01,2013-10-27 01:31:00,
2013-10-26 20:36:00,39.8,29.8,30.10,NW,308,2.0,2.0,67,0.00,,CLR,0.00,VWS V14.01,2013-10-27 01:36:00,
2013-10-26 20:41:00,39.6,29.9,30.10,WNW,301,0.0,2.0,68,0.00,,CLR,0.00,VWS V14.01,2013-10-27 01:41:00,
2013-10-26 20:46:00,39.6,30.3,30.10,NW,308,0.0,4.0,69,0.00,,CLR,0.00,VWS V14.01,2013-10-27 01:46:00,
2013-10-26 20:51:00,39.6,30.6,30.10,NW,307,0.0,4.0,70,0.00,,CLR,0.00,VWS V14.01,2013-10-27 01:51:00,
2013-10-26 20:56:00,39.5,30.2,30.10,NNW,330,0.0,4.0,69,0.00,,CLR,0.00,VWS V14.01,2013-10-27 01:56:00,
2013-10-26 21:00:00,39.9,30.2,30.10,NW,304,1.0,3.0,68,0.00,,,0.00,VWS V14.01,2013-10-27 02:00:00,
2013-10-26 21:01:00,39.3,29.6,30.10,North,6,1.0,1.0,68,0.00,,CLR,0.00,VWS V14.01,2013-10-27 02:01:00,
2013-10-26 21:06:00,39.2,29.9,30.10,NW,308,0.0,1.0,69,0.00,,CLR,0.00,VWS V14.01,2013-10-27 02:06:00,
2013-10-26 21:11:00,38.9,29.6,30.10,North,9,0.0,2.0,69,0.00,,CLR,0.00,VWS V14.01,2013-10-27 02:11:00,
2013-10-26 21:16:00,39.0,29.7,30.10,North,360,0.0,3.0,69,0.00,,CLR,0.00,VWS V14.01,2013-10-27 02:16:00,
2013-10-26 21:21:00,38.9,29.6,30.10,NNE,15,3.0,4.0,69,0.00,,CLR,0.00,VWS V14.01,2013-10-27 02:21:00,
2013-10-26 21:26:00,38.9,29.6,30.10,NNE,20,0.0,4.0,69,0.00,,CLR,0.00,VWS V14.01,2013-10-27 02:26:00,
2013-10-26 21:30:00,39.9,29.9,30.10,West,281,2.0,4.0,67,0.00,,,0.00,VWS V14.01,2013-10-27 02:30:00,
2013-10-26 21:31:00,38.8,29.5,30.10,NNE,21,0.0,0.0,69,0.00,,CLR,0.00,VWS V14.01,2013-10-27 02:31:00,
2013-10-26 21:36:00,38.7,29.4,30.10,North,6,0.0,2.0,69,0.00,,CLR,0.00,VWS V14.01,2013-10-27 02:36:00,
2013-10-26 21:41:00,38.6,29.7,30.10,North,6,0.0,2.0,70,0.00,,CLR,0.00,VWS V14.01,2013-10-27 02:41:00,
2013-10-26 21:46:00,38.4,29.5,30.10,NNW,341,0.0,2.0,70,0.00,,CLR,0.00,VWS V14.01,2013-10-27 02:46:00,
2013-10-26 21:51:00,38.2,29.6,30.11,North,351,2.0,2.0,71,0.00,,CLR,0.00,VWS V14.01,2013-10-27 02:51:00,
2013-10-26 21:56:00,38.2,29.6,30.11,NNE,18,1.0,4.0,71,0.00,,CLR,0.00,VWS V14.01,2013-10-27 02:56:00,
2013-10-26 22:00:00,39.3,29.6,30.10,NNW,346,0.0,4.0,68,0.00,,,0.00,VWS V14.01,2013-10-27 03:00:00,
2013-10-26 22:01:00,38.0,29.5,30.11,NNE,32,0.0,0.0,71,0.00,,CLR,0.00,VWS V14.01,2013-10-27 03:01:00,
2013-10-26 22:06:00,37.8,29.3,30.11,North,11,1.0,1.0,71,0.00,,CLR,0.00,VWS V14.01,2013-10-27 03:06:00,
2013-10-26 22:11:00,37.7,29.2,30.11,NNE,17,0.0,3.0,71,0.00,,CLR,0.00,VWS V14.01,2013-10-27 03:11:00,
2013-10-26 22:16:00,37.5,29.3,30.11,NNE,17,0.0,3.0,72,0.00,,CLR,0.00,VWS V14.01,2013-10-27 03:16:00,
2013-10-26 22:21:00,37.1,29.3,30.10,NNE,18,0.0,3.0,73,0.00,,CLR,0.00,VWS V14.01,2013-10-27 03:21:00,
2013-10-26 22:26:00,36.8,29.3,30.10,WNW,293,0.0,3.0,74,0.00,,CLR,0.00,VWS V14.01,2013-10-27 03:26:00,
2013-10-26 22:30:00,38.8,29.5,30.10,NNE,21,0.0,4.0,69,0.00,,,0.00,VWS V14.01,2013-10-27 03:30:00,
2013-10-26 22:31:00,36.5,29.0,30.10,WNW,294,0.0,0.0,74,0.00,,CLR,0.00,VWS V14.01,2013-10-27 03:31:00,
2013-10-26 22:36:00,36.1,29.3,30.09,WNW,293,0.0,0.0,76,0.00,,CLR,0.00,VWS V14.01,2013-10-27 03:36:00,
2013-10-26 22:41:00,35.9,29.4,30.09,WNW,293,0.0,0.0,77,0.00,,CLR,0.00,VWS V14.01,2013-10-27 03:41:00,
2013-10-26 22:46:00,36.1,29.3,30.09,West,273,0.0,0.0,76,0.00,,CLR,0.00,VWS V14.01,2013-10-27 03:46:00,
2013-10-26 22:51:00,36.2,29.4,30.09,West,273,0.0,0.0,76,0.00,,CLR,0.00,VWS V14.01,2013-10-27 03:51:00,
2013-10-26 22:56:00,36.1,29.3,30.10,WSW,246,0.0,1.0,76,0.00,,CLR,0.00,VWS V14.01,2013-10-27 03:56:00,
2013-10-26 23:00:00,38.1,29.5,30.11,NNE,33,0.0,4.0,71,0.00,,,0.00,VWS V14.01,2013-10-27 04:00:00,
2013-10-26 23:01:00,35.7,28.6,30.09,WSW,248,0.0,1.0,75,0.00,,CLR,0.00,VWS V14.01,2013-10-27 04:01:00,
2013-10-26 23:06:00,35.1,28.3,30.09,WSW,250,0.0,1.0,76,0.00,,CLR,0.00,VWS V14.01,2013-10-27 04:06:00,
2013-10-26 23:11:00,35.1,28.3,30.10,WSW,254,0.0,1.0,76,0.00,,CLR,0.00,VWS V14.01,2013-10-27 04:11:00,
2013-10-26 23:16:00,34.5,27.4,30.09,SSW,205,0.0,1.0,75,0.00,,CLR,0.00,VWS V14.01,2013-10-27 04:16:00,
2013-10-26 23:21:00,33.3,26.6,30.08,WSW,238,1.0,2.0,76,0.00,,CLR,0.00,VWS V14.01,2013-10-27 04:21:00,
2013-10-26 23:26:00,32.4,26.3,30.09,West,260,0.0,2.0,78,0.00,,CLR,0.00,VWS V14.01,2013-10-27 04:26:00,
2013-10-26 23:30:00,36.5,29.0,30.10,WNW,294,0.0,3.0,74,0.00,,,0.00,VWS V14.01,2013-10-27 04:30:00,
2013-10-26 23:31:00,32.3,26.5,30.09,West,270,0.0,0.0,79,0.00,,CLR,0.00,VWS V14.01,2013-10-27 04:31:00,
2013-10-26 23:36:00,32.2,26.4,30.09,West,269,0.0,0.0,79,0.00,,CLR,0.00,VWS V14.01,2013-10-27 04:36:00,
2013-10-26 23:41:00,32.1,26.6,30.08,West,270,0.0,0.0,80,0.00,,CLR,0.00,VWS V14.01,2013-10-27 04:41:00,
2013-10-26 23:46:00,31.8,26.4,30.08,WSW,256,0.0,0.0,80,0.00,,CLR,0.00,VWS V14.01,2013-10-27 04:46:00,
2013-10-26 23:51:00,31.8,26.6,30.08,WSW,255,0.0,0.0,81,0.00,,CLR,0.00,VWS V14.01,2013-10-27 04:51:00,
2013-10-26 23:56:00,31.9,26.4,30.08,West,262,0.0,1.0,80,0.00,,CLR,0.00,VWS V14.01,2013-10-27 04:56:00,